Date,TemperatureHighF,TemperatureAvgF,TemperatureLowF,DewpointHighF,DewpointAvgF,DewpointLowF,HumidityHigh,HumidityAvg,HumidityLow,PressureMaxIn,PressureMinIn,WindSpeedMaxMPH,WindSpeedAvgMPH,GustSpeedMaxMPH,PrecipitationSumIn
2013-9-1,72.0,63.9,55.0,64.0,60.5,54.0,99,89,65,0.00,40.00,8,5,19,0.23
2013-9-2,57.0,51.4,43.0,53.0,48.5,42.0,99,90,75,0.00,40.00,6,4,14,0.28
2013-9-3,73.0,55.9,37.0,54.0,47.4,37.0,99,77,46,0.00,40.00,7,3,15,0.00
2013-9-4,67.0,58.6,42.0,56.0,49.7,41.0,98,74,51,0.00,40.00,6,4,14,0.00
2013-9-5,75.0,56.0,37.0,55.0,45.6,36.0,98,74,39,0.00,40.00,4,2,10,0.00
2013-9-6,79.0,66.5,56.0,68.0,60.1,51.0,97,81,68,0.00,40.00,8,4,17,0.02
2013-9-7,80.0,65.4,49.0,68.0,59.6,-99.9,98,85,66,0.00,40.00,8,3,14,0.02
2013-9-8,70.0,56.6,39.0,58.0,49.2,38.0,99,79,50,0.00,40.00,6,2,14,0.00
2013-9-9,75.0,64.6,59.0,69.0,61.8,52.0,99,90,77,0.00,40.00,7,3,13,0.08
2013-9-10,75.0,67.8,61.0,68.0,64.9,61.0,99,90,70,0.00,40.00,7,3,15,0.11
2013-9-11,76.0,63.7,51.0,62.0,57.1,50.0,99,82,50,0.00,40.00,10,4,20,0.01
2013-9-12,60.0,53.8,47.0,55.0,48.3,41.0,99,83,61,0.00,40.00,9,4,21,0.01
2013-9-13,63.0,47.5,32.0,47.0,40.8,32.0,98,81,47,0.00,40.00,5,1,11,0.00
2013-9-14,68.0,51.0,35.0,53.0,43.3,-99.9,99,80,49,0.00,40.00,9,3,18,0.02
2013-9-15,55.0,48.3,31.0,54.0,45.8,31.0,99,92,75,0.00,40.00,9,2,17,0.14
2013-9-16,64.0,44.5,28.0,44.0,36.2,27.0,98,77,42,0.00,40.00,5,2,10,0.03
2013-9-17,66.0,52.9,35.0,50.0,42.6,34.0,98,72,40,0.00,40.00,9,5,19,0.00
2013-9-18,63.0,57.5,56.0,62.0,54.3,51.0,96,89,77,0.00,40.00,8,6,18,0.01
2013-9-19,80.0,68.4,63.0,69.0,65.1,62.0,98,90,68,0.00,40.00,10,4,19,0.03
2013-9-20,66.0,59.3,47.0,64.0,55.6,46.0,98,88,71,0.00,40.00,8,5,18,0.01
2013-9-21,51.0,44.1,31.0,47.0,38.8,-99.9,98,85,61,0.00,40.00,7,4,16,0.12
2013-9-22,62.0,44.2,30.0,45.0,37.3,29.0,99,80,47,0.00,40.00,6,2,11,0.04
2013-9-23,69.0,53.4,43.0,50.0,45.3,41.0,93,76,50,0.00,40.00,8,5,17,0.00
2013-9-24,73.0,56.6,40.0,51.0,46.6,39.0,98,74,41,0.00,40.00,6,4,12,0.00
2013-9-25,74.0,59.6,41.0,55.0,48.0,40.0,98,71,36,0.00,40.00,6,2,13,0.00
2013-9-26,73.0,60.8,41.0,52.0,48.9,40.0,99,68,43,0.00,40.00,7,4,17,0.00
2013-9-27,78.0,65.5,55.0,56.0,51.8,47.0,85,63,46,0.00,40.00,12,7,23,0.00
2013-9-28,75.0,61.8,51.0,61.0,50.4,-99.9,94,70,52,0.00,40.00,15,9,33,0.26
2013-9-29,69.0,56.8,40.0,47.0,43.5,39.0,97,65,34,0.00,40.00,8,5,17,0.19
2013-9-30,72.0,61.0,52.0,46.0,44.8,43.0,80,57,38,0.00,40.00,15,9,31,0.00